Tracking 29892 objects as of 21-Nov-2024
HD Live streaming from Space Station
objects crossing your sky now

FENGYUN 1C DEB

Track FENGYUN 1C DEB now!
10-day predictions


NORAD ID: 31022
Int'l Code: 1999-025BDQ
Perigee: 855.3 km
Apogee: 1,017.4 km
Inclination: 99.6 °
Period: 103.6 minutes
Semi major axis: 7307 km
RCS: 0.016 m2 (small)
Launch date: May 10, 1999
Source: People's Republic of China (PRC)
Launch site: Taiyaun Space Center, China (TSC)

Note: This is SATELLITE DEBRIS
Your satellite tracking list
Your tracking list is empty




NASA's NSSDC Master Catalog

Two Line Element Set (TLE):
1 31022U 99025BDQ 24317.89962208  .00001074  00000-0  86740-3 0  9994
2 31022  99.5607 185.4570 0110923  96.9372 264.4417 13.89835798894952
Source of the keplerian elements: AFSPC